STARLINK-5992, 56328

Orbit data source: Space-Track

STARLINK-5992, 56328 is a payload satellite owned by SpaceX/Seattle (US) in SSO that was launched on Thu, 27 Apr 2023 UTC via an FALCON 9 launch vehicle from the Air Force Western Test Range (AFWTR). Payload-class satellites include a variety of spacecraft equipped with specific instruments for various scientific and technological missions. These include communications satellites like Starlink; space stations such as the ISS; scientific satellites like the Hubble; Earth observation satellites from companies like Planet Labs, Umbra, and HawkEye 360; GPS; miniature CubeSats for education and research; and military/defense satellites.

Loading next visibility...
Identifier
56328, 2023-058M
Orbit
SSO
Country
Flag of USUS
Related business
Manufacturer
SpaceX/Seattle
Mission
Operational Commercial Communications
Bus & Motor
STARLINK, Unknown motor
Mass
300 kg wet, ~260 kg dry
Launch date (UTC)
2023-04-27 (3 years ago)
Launch vehicle
FALCON 9
Launch site
Air Force Western Test Range (AFWTR)
Object type
Payload
Rocket body
Debris
Shape & HBR
Box + 1 Pan, 10.1 m
Radar Cross Section
11.087 m², Large (>1 m²)

Expand to show TLE details & history
Last TLE update: 2 days ago

TLE from 2 days ago
0 STARLINK-5992
1 56328U 23058M   26170.95164664 -.00003733  00000-0 -25505-3 0  9997
2 56328  97.3402 170.9327 0000992  62.2445 297.8883 15.05629807173585
Epoch: 2026-06-19T22:50Z
TLE epoch observation values (Epoch: 2026-06-19T22:50:22.269Z)
Latitude
-0.00004°
Longitude
-79.83334°
Altitude
552.324 km
Speed
7.586 km/s
True Right ascension
11h 23m 43s
True Declination
0° 00' 00"
Sunlit
Object was in daylight at epoch
Visualization orbit readout
Latitude
Unknown
Longitude
Unknown
Altitude
Unknown
Speed
Unknown
Apparent Right ascension
Unknown
Apparent Declination
Unknown
Sunlit
N/A
Visualization observer readout
Local Sidereal Time
21:30:50
Azimuth
Unknown
Elevation
Unknown
Doppler factor
Unknown
Orbital elements
Apogee altitude
547.242 km
Perigee altitude
545.868 km
Semi-major axis
6,924.692 km
Eccentricity
0.0001
Inclination
97.3402°
RAAN
170.9327°
Arg. of periapsis
62.2445°
True anomaly
297.87825°
Mean anomaly
297.8883°
Eccentric anomaly
297.88328°
Mean motion
3.76654 °/min
Orbital period
95.58 mins
BSTAR
-0.00025505
Loading maneuver chart data...
Computing Atmospheric mass density...
Loading historical data...
Loading historical data...
Loading historical data...
Loading historical data...
Loading historical data...
Loading historical data...
Loading historical data...

Documentation

Showing up to 5 results
|